Weather observations for the past three days for
Cocoa Beach, Cape Canaveral Air Force Station Skid Strip
Imperial (Metric)
Date Time (edt) Wind (mph) Vis. (mi.) Weather Sky Cond. Temperature (ºF) Relative Humidity Wind Chill (°F) Heat Index (°F) Pressure Precipitation (in)
Air Dwpt 6 hour altimeter (in) sea level (mb) 1 hr 3 hr 6 hr
Max. Min.
22 19:55 S 9 10.00 Fair CLR 85.1 77.4 92.3 84.6 78% 96 30 1016.2
22 18:55 S 12 10.00 A Few Clouds FEW020 86.5 76.3 72% 97 29.99 1015.9
22 17:55 SE 8 10.00 Fair CLR 87.1 76.8 72% 99 29.99 1015.9
22 16:55 E 12 10.00 A Few Clouds FEW200 89.8 77.2 67% 103 29.99 1015.9
22 15:55 E 12 10.00 A Few Clouds FEW160 FEW200 88.5 75.6 66% 99 30 1016.2
22 14:55 E 12 10.00 Mostly Cloudy SCT019 SCT170 BKN210 90.1 77.2 66% 104 30.01 1016.5
22 13:55 E 10 10.00 Mostly Cloudy FEW110 FEW130 SCT170 SCT200 BKN220 91.4 75.9 93 81 61% 104 30.01 1016.5
22 12:55 E 9 10.00 Mostly Cloudy FEW110 FEW140 SCT170 BKN200 90.5 77 65% 104 30.03 1017.2
22 11:55 SE 8 10.00 A Few Clouds FEW180 92.1 74.7 57% 103 30.04 1017.6
22 10:55 SE 8 10.00 Fair CLR 90.3 75.9 63% 102 30.04 1017.6
22 09:55 SE 7 10.00 A Few Clouds FEW017 87.1 76.8 72% 99 30.03 1017.2
22 08:55 E 5 10.00 Fair CLR 83.3 79.3 88% 95 30.03 1017.2
22 07:55 E 3 10.00 Fair CLR 80.8 78.8 80.8 77.4 94% 89 30.01 1016.5
22 06:55 Calm 10.00 Fair CLR 78.8 76.8 94% 83 30 1016.2
22 05:55 S 5 10.00 Fair CLR 78.4 76.5 94% 82 29.99 1015.9
22 04:55 S 7 10.00 Fair CLR 80.1 77.5 92% 86 29.99 1015.9
22 03:55 S 7 10.00 Fair CLR 80.6 77.9 92% 88 29.99 1015.9
22 02:55 SE 7 10.00 Fair CLR 77.4 75.7 95% 79 30.01 1016.5
22 01:55 Calm 10.00 Fair CLR 78.3 76.3 85.3 77.5 94% 81 30.03 1017.2
22 00:55 Calm 10.00 Fair CLR 78.8 76.8 94% 83 30.03 1017.2
21 23:55 Calm 10.00 Fair CLR 80.2 77.5 92% 87 30.04 1017.6
21 22:55 E 3 10.00 Fair CLR 81.1 77.5 89% 89 30.05 1017.9
21 21:55 SE 6 10.00 Fair CLR 82.2 77.9 87% 91 30.05 1017.9
21 20:55 SE 8 10.00 Fair CLR 83.7 78.3 84% 94 30.04 1017.6
21 19:55 SE 9 10.00 Fair CLR 85.1 77.4 93.7 85.1 78% 96 30.01 1016.5
21 18:55 SE 12 10.00 Fair CLR 89.1 79.2 73% 105 29.99 1015.9
21 17:55 SE 12 10.00 Fair CLR 89.6 77.5 68% 103 29.98 1015.5
21 16:55 SE 13 10.00 Fair CLR 90 77.4 67% 104 30 1016.2
21 15:55 E 10 10.00 A Few Clouds FEW180 FEW200 90.7 76.6 64% 104 30.01 1016.5
21 14:55 E 13 10.00 Partly Cloudy FEW170 SCT200 92.1 76.1 60% 105 30.02 1016.9
21 13:55 SE 12 10.00 Partly Cloudy FEW110 SCT160 SCT200 92.1 74.1 93.6 80.4 56% 102 30.04 1017.6
21 12:55 S 8 10.00 Mostly Cloudy FEW130 SCT180 BKN200 92.7 75 57% 104 30.05 1017.9
21 11:55 S 9 10.00 Partly Cloudy FEW140 FEW170 SCT200 90.9 74.5 59% 101 30.06 1018.2
21 10:55 SE 8 10.00 Fair CLR 90.3 76.8 65% 103 30.07 1018.6
21 09:55 S 6 10.00 Fair CLR 87.8 75.9 68% 99 30.06 1018.2
21 07:55 Calm 10.00 Fair CLR 80.4 78.8 80.6 77 95% 88 30.05 1017.9
21 06:55 Calm 10.00 Fair CLR 77.2 75.6 95% 78 30.04 1017.6
21 05:55 Calm 5.00 Fog/Mist CLR 77.5 76.3 96% 79 30.02 1016.9
21 04:55 Calm 10.00 Fair CLR 78.3 76.6 95% 81 30.02 1016.9
21 03:55 SE 6 10.00 Fair CLR 78.8 76.8 94% 83 30.03 1017.2
21 02:55 E 6 10.00 Fair CLR 79.2 76.8 93% 84 30.05 1017.9
21 01:55 N 8 9.00 Mostly Cloudy BKN036 80.8 76.8 85.6 80.8 88% 87 30.09 1019.2
21 00:55 W 3 10.00 A Few Clouds FEW035 82.6 77.9 86% 92 30.11 1019.9
20 23:55 S 3 10.00 Fair CLR 82 78.4 89% 91 30.11 1019.9
20 21:55 SE 7 10.00 Fair CLR 83.8 79.2 86% 96 30.09 1019.2
20 20:55 S 9 10.00 Fair CLR 84.6 79.5 85% 98 30.09 1019.2
20 19:55 S 10 10.00 Fair CLR 85.6 79 93.9 85.5 81% 99 30.05 1017.9
20 18:55 SE 13 10.00 Fair CLR 87.6 80.2 79% 104 30.03 1017.2
20 17:55 SE 14 10.00 Fair CLR 89.8 79.9 73% 107 30.04 1017.6
20 16:55 SE 17 G 23 10.00 Fair CLR 90.5 79.3 70% 107 30.05 1017.9
20 15:55 SE 15 10.00 Fair CLR 92.1 77.5 63% 107 30.06 1018.2
20 14:55 SE 16 10.00 Fair CLR 92.7 76.1 59% 105 30.08 1018.9
20 13:55 SE 13 10.00 Partly Cloudy FEW140 SCT170 SCT200 92.5 75.4 93.4 83.3 58% 104 30.09 1019.2
20 12:55 SE 10 10.00 A Few Clouds FEW190 92.3 75.7 59% 104 30.1 1019.6
20 11:55 SE 8 10.00 Fair CLR 92.1 72.5 53% 100 30.11 1019.9
20 10:55 S 7 10.00 Fair CLR 90.5 76.1 63% 103 30.1 1019.6
20 09:55 S 9 10.00 Fair CLR 88.5 77.4 70% 101 30.1 1019.6
20 08:55 S 8 10.00 Fair CLR 86.9 78.3 76% 100 30.08 1018.9
20 07:55 S 5 10.00 Fair CLR 83.3 79 83.3 79.2 87% 94 30.07 1018.6
20 06:55 S 3 10.00 Fair CLR 80.2 78.3 94% 87 30.06 1018.2
20 05:55 S 6 10.00 Fair CLR 80.6 78.6 94% 88 30.05 1017.9
20 04:55 S 5 10.00 A Few Clouds FEW023 81.7 78.8 91% 91 30.06 1018.2
20 03:55 SE 8 10.00 Mostly Cloudy BKN220 82.6 78.6 88% 93 30.05 1017.9
20 02:55 S 8 10.00 Fair CLR 82.4 79.3 91% 93 30.05 1017.9
20 01:55 SE 7 10.00 Fair CLR 79.5 77.2 84.2 79 93% 85 30.08 1018.9
20 00:55 SE 3 10.00 Mostly Cloudy BKN180 80.1 77.7 93% 86 30.09 1019.2
19 23:55 Calm 10.00 Fair CLR 80.4 78.1 93% 87 30.09 1019.2
19 22:55 S 3 10.00 Fair CLR 80.4 77.2 90% 87 30.09 1019.2
19 21:55 SE 6 10.00 Fair CLR 82.8 77.4 84% 92 30.07 1018.6
19 20:55 S 7 10.00 Fair CLR 83.1 74.7 76% 90 30.07 1018.6
Date Time (edt) Wind (mph) Vis. (mi.) Weather Sky Cond. Air Dwpt Max. Min. Relative Humidity Wind Chill (°F) Heat Index (°F) altimeter (in) sea level (mb) 1 hr 3 hr 6 hr
6 hour
Temperature (ºF) Pressure Precipitation (in)